Flag for Germany Weather past 2 weeks in Viersen, North Rhine-Westphalia, Germany

Now
59 °F

Scattered clouds.


Feels Like: 56 °F
Forecast: 47 / 68 °F
Wind: 14 mph from West

Location: Monchengladbach Airport

Current Time: May 30, 2015 at 1:13:14 PM

Latest Report: May 30, 2015 at 12:20 PM


Visibility: N/A

Pressure: 29.92 "Hg

Humidity: 55%

Dew point: 43 °F

Location of ViersenLocation

Historic Weather in Viersen — Graph

°F

Viersen temperature yesterday

Maximum temperature yesterday: 63 °F (at 3:20 PM)
Minimum temperature yesterday: 52 °F (at 7:20 AM)
Average temperature yesterday: 58 °F

Past Weeks' High & Low Weather Summary

 TemperatureHumidityPressure
High70 °F (May 18, 4:50 PM)100% (May 16, 2:50 PM)30.33 "Hg (May 16, 2:50 PM)
Low41 °F (May 21, 6:20 AM)37% (May 27, 5:20 PM)29.65 "Hg (May 18, 6:20 PM)
Average59 °F60%30.06 "Hg
* Reported May 15 11:20 AM — May 30 11:50 AM, Viersen, Weather by CustomWeather, © 2015

Note: Actual official high and low records may vary slightly from our data, if they occured in-between our weather recording intervals... More about our weather records

Advertising

Viersen weather history for previous 24 hours

 ConditionsComfort  
Time TempWeatherWind HumidityBarometerVisibility
11:50 AM
Sat, May 30
55 °FScattered clouds.7 mph67%29.92 "HgN/A
11:20 AM57 °FScattered clouds.12 mph55%29.92 "HgN/A
10:50 AM55 °FScattered clouds.9 mph63%29.92 "HgN/A
10:20 AM54 °FScattered clouds.9 mph67%29.92 "HgN/A
9:50 AM55 °FScattered clouds.9 mph63%29.92 "HgN/A
9:20 AM55 °FScattered clouds.7 mph77%29.89 "HgN/A
8:50 AM52 °FPassing clouds.8 mph88%29.89 "HgN/A
8:20 AM50 °FPassing clouds.8 mph94%29.89 "HgN/A
7:50 AM50 °FScattered clouds.7 mph94%29.89 "HgN/A
8:20 PM
Fri, May 29
59 °FPassing clouds.12 mph59%29.74 "HgN/A
7:50 PM59 °FPassing clouds.10 mph55%29.74 "HgN/A
7:20 PM59 °FPassing clouds.10 mph55%29.74 "HgN/A
6:50 PM61 °FPassing clouds.10 mph48%29.74 "HgN/A
6:20 PM61 °FPassing clouds.14 mph48%29.77 "HgN/A
5:50 PM61 °FPassing clouds.15 mph45%29.74 "HgN/A
5:20 PM63 °FPassing clouds.22 mph42%29.77 "HgN/A
4:50 PM63 °FPassing clouds.18 mph45%29.77 "HgN/A
4:20 PM63 °FPassing clouds.18 mph49%29.77 "HgN/A
3:50 PM63 °FPassing clouds.13 mph49%29.77 "HgN/A
3:20 PM63 °FPassing clouds.21 mph52%29.77 "HgN/A
2:50 PM61 °FPassing clouds.12 mph52%29.80 "HgN/A
2:20 PM59 °FPassing clouds.10 mph55%29.80 "HgN/A
1:50 PM59 °FPassing clouds.9 mph55%29.80 "HgN/A
1:20 PM59 °FBroken clouds.10 mph55%29.83 "HgN/A
Weather by CustomWeather, © 2015

See weather overviewHow to use our weather pages